Location: Fort Wayne
(41.1310°N, 85.1290°W)
Time: 17:04:22
(UTC-04:00)

Iridium 37 - Visible Passes

Search period start: 01 September 2014 00:00
Search period end: 11 September 2014 00:00
Orbit: 776 x 779 km, 86.4° (Epoch: 01 September)

Date Brightness Start Highest point End Pass type
(mag) Time Alt. Az. Time Alt. Az. Time Alt. Az.
01 Sep 8.0 03:27:04 13° E 03:28:43 15° ENE 03:31:33 10° NE visible
01 Sep 5.5 05:07:34 47° SW 05:08:49 63° W 05:14:00 10° N visible
02 Sep 5.6 04:34:34 62° SE 04:35:18 72° E 04:40:30 10° N visible
02 Sep 7.3 06:15:04 12° W 06:16:35 13° WNW 06:19:01 10° NW visible
03 Sep 6.6 04:01:33 38° E 04:01:53 38° E 04:06:41 10° NNE visible
03 Sep 6.6 05:42:03 23° W 05:42:43 24° WNW 05:46:54 10° NNW visible
04 Sep 7.5 03:28:31 21° E 03:28:36 21° E 03:32:28 10° NNE visible
04 Sep 5.9 05:09:00 43° W 05:09:00 43° W 05:13:57 10° N visible
05 Sep 8.2 02:55:27 11° ENE 02:55:27 11° ENE 02:57:05 10° ENE visible
05 Sep 5.6 04:35:57 70° NNW 04:35:57 70° NNW 04:40:37 10° N visible
06 Sep 6.3 04:02:52 48° NE 04:02:52 48° NE 04:06:59 10° NNE visible
06 Sep 7.1 05:43:21 17° WNW 05:43:21 17° WNW 05:46:19 10° NW visible
07 Sep 7.3 03:29:45 27° ENE 03:29:45 27° ENE 03:33:02 10° NNE visible
07 Sep 6.7 05:10:15 28° WNW 05:10:15 28° WNW 05:13:45 10° NNW visible
08 Sep 8.0 02:56:38 15° ENE 02:56:38 15° ENE 02:58:33 10° NE visible
08 Sep 6.4 04:37:08 39° NNW 04:37:08 39° NNW 04:40:37 10° N visible
09 Sep 6.7 04:04:00 38° N 04:04:00 38° N 04:07:10 10° N visible
09 Sep 7.6 05:44:29 11° WNW 05:44:29 11° WNW 05:45:02 10° NW visible
10 Sep 7.4 03:30:50 27° NNE 03:30:50 27° NNE 03:33:26 10° NNE visible
10 Sep 7.3 05:11:20 18° NW 05:11:20 18° NW 05:13:21 10° NNW visible
